Content
SEND FEEDBACK

Daily
Averages
Monthly
Summary
United States of America

WILMINGTON, NORTH CAROLINA


Home > North America > United States > North Carolina
Elevation: 21 meters     Latitude: 34 16N     Longitude: 077 54W

WEATHER
 
SELECT A DAY
Number of Records: 208,565;   Date Range: 1/1/95 - 7/7/14
 
SHARE

PRINT THIS DATA

[ ← Previous Day ]
WEATHER ALMANAC - 1 JANUARY, 2013
[ Next Day → ]
[ °F ]   °C
Weather ElementAverageHighLow
Temperature12.2 °C13.3 °C (10:53 am)10.6 °C (1:53 am)
Dewpoint8.8 °C10.6 °C (3:53 pm)6.7 °C (1:53 am)
Humidity80.4 %97 % (10:53 pm)69 % (10:53 am)
Barometer1017.9 hPa1021 hPa (9:53 am)1014.6 hPa (11:53 pm)
Wind Speed9.3 km/h16.7 km/h (2:53 am)
Weather ElementAverage
Visibility15.6 km
Wind DirectionSSW (205.2 °)

Weather ElementTotal
Precipitation0.51 mm
Heating Degree Days6.4 (Base 18.3)
Growing Degree Days1.9 (Base 10)
Averaged from 23 records on 1 January, 2013
WEATHER CONDITIONS BREAKOUT
WIND DIRECTION BREAKOUT
WEATHER BY HOUR - 1 JANUARY, 2013
[ °F ]   °C
Local TimeTemperatureDewpointHumidityBarometerVisibilityWind DirectionWind SpeedGust SpeedPrecipitationEventsConditions
1:53 AM10.6 °C6.7 °C77 %1020.3 hPa16.1 kmWSW (240°)11.1 km/hOvercast
2:53 AM11.7 °C6.7 °C71 %1019.6 hPa16.1 kmSW (230°)16.7 km/hOvercast
3:53 AM11.1 °C6.7 °C74 %1019.3 hPa16.1 kmWSW (240°)11.1 km/hOvercast
4:53 AM11.1 °C6.7 °C74 %1019 hPa16.1 kmSW (220°)9.3 km/hOvercast
5:53 AM12.2 °C7.2 °C72 %1019.3 hPa16.1 kmWSW (250°)14.8 km/hOvercast
6:53 AM12.2 °C7.2 °C72 %1019.3 hPa16.1 kmWSW (250°)13 km/hOvercast
7:53 AM11.7 °C7.2 °C74 %1020.3 hPa16.1 kmWest (260°)11.1 km/hOvercast
8:53 AM12.2 °C7.2 °C72 %1020.7 hPa16.1 kmSW (230°)9.3 km/hOvercast
9:53 AM12.8 °C7.8 °C72 %1021 hPa16.1 kmWest (260°)9.3 km/hMostly Cloudy
10:53 AM13.3 °C7.8 °C69 %1020.7 hPa16.1 kmWest (260°)13 km/hOvercast
11:53 AM12.8 °C8.3 °C74 %1019.6 hPa16.1 kmWSW (250°)9.3 km/hOvercast
12:53 PM12.2 °C8.9 °C80 %1018.3 hPa16.1 kmWest (280°)9.3 km/h0.25 mmRainLight Rain
1:53 PM12.2 °C9.4 °C83 %1017.6 hPa12.9 kmSW (230°)11.1 km/h0 mmRainLight Rain
2:53 PM12.2 °C10 °C86 %1017.3 hPa16.1 kmWest (260°)9.3 km/h0.25 mmOvercast
3:53 PM12.8 °C10.6 °C86 %1016.9 hPa16.1 kmWSW (240°)13 km/h0 mmOvercast
4:53 PM12.8 °C10.6 °C86 %1016.3 hPa16.1 kmSSW (210°)13 km/hOvercast
5:53 PM12.8 °C10.6 °C86 %1016.3 hPa16.1 kmSW (230°)11.1 km/hOvercast
6:53 PM12.8 °C10.6 °C86 %1016.6 hPa16.1 kmWSW (250°)5.6 km/hOvercast
7:53 PM12.2 °C10.6 °C90 %1016.6 hPa16.1 kmNW (320°)5.6 km/hOvercast
8:53 PM12.8 °C10.6 °C86 %1016.3 hPa16.1 kmNorth (10°)7.4 km/hOvercast
9:53 PM12.2 °C10.6 °C90 %1015.2 hPa16.1 kmCalmOvercast
10:53 PM11.1 °C10.6 °C97 %1015.2 hPa14.5 kmCalmMostly Cloudy
11:53 PM11.7 °C10.6 °C93 %1014.6 hPa11.3 kmCalmOvercast
Hourly data recorded from KILM, located 0 kilometers away from Wilmington, North Carolina







STORIES FROM OUR PARTNERS